owner,sensor,date,latitude,longitude,air_pressure(mBar),qcFlag 
COMPS,ioos:station:USF.COMPS:C13:1,2015-11-01T00:05:00Z,26.0630,-83.0730,1012.94,1111122 
COMPS,ioos:station:USF.COMPS:C13:1,2015-11-01T00:35:00Z,26.0630,-83.0730,1013.31,1111122 
COMPS,ioos:station:USF.COMPS:C13:1,2015-11-01T04:05:00Z,26.0630,-83.0730,1014.05,1111122 
COMPS,ioos:station:USF.COMPS:C13:1,2015-11-01T04:35:00Z,26.0630,-83.0730,1013.86,1111122 
COMPS,ioos:station:USF.COMPS:C13:1,2015-11-01T05:05:00Z,26.0630,-83.0730,1013.56,1111122 
COMPS,ioos:station:USF.COMPS:C13:1,2015-11-01T05:35:00Z,26.0630,-83.0730,1013.33,1111122 
COMPS,ioos:station:USF.COMPS:C13:1,2015-11-01T06:05:00Z,26.0630,-83.0730,1013.21,1111122 
COMPS,ioos:station:USF.COMPS:C13:1,2015-11-01T06:35:00Z,26.0630,-83.0730,1012.99,1111122 
COMPS,ioos:station:USF.COMPS:C13:1,2015-11-01T07:05:00Z,26.0630,-83.0730,1012.87,1111122 
COMPS,ioos:station:USF.COMPS:C13:1,2015-11-01T07:35:00Z,26.0630,-83.0730,1012.68,1111122 
COMPS,ioos:station:USF.COMPS:C13:1,2015-11-01T08:05:00Z,26.0630,-83.0730,1012.5,1111122 
COMPS,ioos:station:USF.COMPS:C13:1,2015-11-01T08:35:00Z,26.0630,-83.0730,1012.23,1111122 
COMPS,ioos:station:USF.COMPS:C13:1,2015-11-01T09:05:00Z,26.0630,-83.0730,1012.29,1111122 
COMPS,ioos:station:USF.COMPS:C13:1,2015-11-01T09:35:00Z,26.0630,-83.0730,1012.23,1111122 
COMPS,ioos:station:USF.COMPS:C13:1,2015-11-01T10:05:00Z,26.0630,-83.0730,1012.52,1111122 
COMPS,ioos:station:USF.COMPS:C13:1,2015-11-01T10:35:00Z,26.0630,-83.0730,1012.76,1111122 
COMPS,ioos:station:USF.COMPS:C13:1,2015-11-01T13:05:00Z,26.0630,-83.0730,1013.55,1111122 
COMPS,ioos:station:USF.COMPS:C13:1,2015-11-01T13:35:00Z,26.0630,-83.0730,1013.89,1111122 
COMPS,ioos:station:USF.COMPS:C13:1,2015-11-01T14:05:00Z,26.0630,-83.0730,1014.08,1111122 
COMPS,ioos:station:USF.COMPS:C13:1,2015-11-01T14:35:00Z,26.0630,-83.0730,1014.05,1111122 
COMPS,ioos:station:USF.COMPS:C13:1,2015-11-01T17:05:00Z,26.0630,-83.0730,1013.49,1111122 
COMPS,ioos:station:USF.COMPS:C13:1,2015-11-01T17:35:00Z,26.0630,-83.0730,1012.95,1111122 
COMPS,ioos:station:USF.COMPS:C13:1,2015-11-01T18:05:00Z,26.0630,-83.0730,1012.51,1111122 
COMPS,ioos:station:USF.COMPS:C13:1,2015-11-01T18:35:00Z,26.0630,-83.0730,1012.13,1111122 
COMPS,ioos:station:USF.COMPS:C13:1,2015-11-01T19:05:00Z,26.0630,-83.0730,1012.13,1111122 
COMPS,ioos:station:USF.COMPS:C13:1,2015-11-01T19:35:00Z,26.0630,-83.0730,1012.19,1111122 
COMPS,ioos:station:USF.COMPS:C13:1,2015-11-01T20:05:00Z,26.0630,-83.0730,1012.32,1111122 
COMPS,ioos:station:USF.COMPS:C13:1,2015-11-01T20:35:00Z,26.0630,-83.0730,1012.37,1111122 
COMPS,ioos:station:USF.COMPS:C13:1,2015-11-01T21:05:00Z,26.0630,-83.0730,1012.62,1111122 
COMPS,ioos:station:USF.COMPS:C13:1,2015-11-01T21:35:00Z,26.0630,-83.0730,1012.77,1111122 
COMPS,ioos:station:USF.COMPS:C13:1,2015-11-01T22:05:00Z,26.0630,-83.0730,1012.97,1111122 
COMPS,ioos:station:USF.COMPS:C13:1,2015-11-01T22:35:00Z,26.0630,-83.0730,1013.22,1111122 
COMPS,ioos:station:USF.COMPS:C13:1,2015-11-01T23:05:00Z,26.0630,-83.0730,1013.51,1111122 
COMPS,ioos:station:USF.COMPS:C13:1,2015-11-01T23:35:00Z,26.0630,-83.0730,1013.48,1111122 
COMPS,ioos:station:USF.COMPS:C13:1,2015-11-02T00:05:00Z,26.0630,-83.0730,1013.59,1111122 
COMPS,ioos:station:USF.COMPS:C13:1,2015-11-02T00:35:00Z,26.0630,-83.0730,1013.61,1111122 
COMPS,ioos:station:USF.COMPS:C13:1,2015-11-02T01:05:00Z,26.0630,-83.0730,1013.54,1111122 
COMPS,ioos:station:USF.COMPS:C13:1,2015-11-02T01:35:00Z,26.0630,-83.0730,1013.56,1111122 
COMPS,ioos:station:USF.COMPS:C13:1,2015-11-02T05:05:00Z,26.0630,-83.0730,1012.9,1111122 
COMPS,ioos:station:USF.COMPS:C13:1,2015-11-02T05:35:00Z,26.0630,-83.0730,1012.66,1111122 
COMPS,ioos:station:USF.COMPS:C13:1,2015-11-02T07:05:00Z,26.0630,-83.0730,1011.82,1111122 
COMPS,ioos:station:USF.COMPS:C13:1,2015-11-02T07:35:00Z,26.0630,-83.0730,1011.91,1111122 
COMPS,ioos:station:USF.COMPS:C13:1,2015-11-02T08:05:00Z,26.0630,-83.0730,1011.92,1111122 
COMPS,ioos:station:USF.COMPS:C13:1,2015-11-02T08:35:00Z,26.0630,-83.0730,1012.01,1111122 
COMPS,ioos:station:USF.COMPS:C13:1,2015-11-02T10:05:00Z,26.0630,-83.0730,1012.19,1111122 
COMPS,ioos:station:USF.COMPS:C13:1,2015-11-02T10:35:00Z,26.0630,-83.0730,1012.2,1111122 
COMPS,ioos:station:USF.COMPS:C13:1,2015-11-02T11:05:00Z,26.0630,-83.0730,1012.46,1111122 
COMPS,ioos:station:USF.COMPS:C13:1,2015-11-02T11:35:00Z,26.0630,-83.0730,1012.54,1111122 
COMPS,ioos:station:USF.COMPS:C13:1,2015-11-02T12:05:00Z,26.0630,-83.0730,1012.74,1111122 
COMPS,ioos:station:USF.COMPS:C13:1,2015-11-02T12:35:00Z,26.0630,-83.0730,1013.03,1111122 
COMPS,ioos:station:USF.COMPS:C13:1,2015-11-02T13:05:00Z,26.0630,-83.0730,1013.47,1111122 
COMPS,ioos:station:USF.COMPS:C13:1,2015-11-02T13:35:00Z,26.0630,-83.0730,1013.56,1111122 
COMPS,ioos:station:USF.COMPS:C13:1,2015-11-02T16:05:00Z,26.0630,-83.0730,1013.62,1111122 
COMPS,ioos:station:USF.COMPS:C13:1,2015-11-02T16:35:00Z,26.0630,-83.0730,1013.47,1111122 
COMPS,ioos:station:USF.COMPS:C13:1,2015-11-02T17:05:00Z,26.0630,-83.0730,1013.18,1111122 
COMPS,ioos:station:USF.COMPS:C13:1,2015-11-02T17:35:00Z,26.0630,-83.0730,1012.97,1111122 
COMPS,ioos:station:USF.COMPS:C13:1,2015-11-02T19:05:00Z,26.0630,-83.0730,1012.37,1111122 
COMPS,ioos:station:USF.COMPS:C13:1,2015-11-02T19:35:00Z,26.0630,-83.0730,1012.18,1111122 
COMPS,ioos:station:USF.COMPS:C13:1,2015-11-02T20:05:00Z,26.0630,-83.0730,1012.24,1111122 
COMPS,ioos:station:USF.COMPS:C13:1,2015-11-02T20:35:00Z,26.0630,-83.0730,1012.16,1111122 
COMPS,ioos:station:USF.COMPS:C13:1,2015-11-02T21:05:00Z,26.0630,-83.0730,1012.14,1111122 
COMPS,ioos:station:USF.COMPS:C13:1,2015-11-02T21:35:00Z,26.0630,-83.0730,1012.27,1111122 
COMPS,ioos:station:USF.COMPS:C13:1,2015-11-02T22:05:00Z,26.0630,-83.0730,1012.14,1111122 
COMPS,ioos:station:USF.COMPS:C13:1,2015-11-02T22:35:00Z,26.0630,-83.0730,1012.53,1111122 
COMPS,ioos:station:USF.COMPS:C13:1,2015-11-02T23:05:00Z,26.0630,-83.0730,1012.58,1111122 
COMPS,ioos:station:USF.COMPS:C13:1,2015-11-02T23:35:00Z,26.0630,-83.0730,1012.7,1111122 
COMPS,ioos:station:USF.COMPS:C13:1,2015-11-03T00:05:00Z,26.0630,-83.0730,1012.81,1111122 
COMPS,ioos:station:USF.COMPS:C13:1,2015-11-03T00:35:00Z,26.0630,-83.0730,1012.93,1111122 
COMPS,ioos:station:USF.COMPS:C13:1,2015-11-03T01:05:00Z,26.0630,-83.0730,1013.08,1111122 
COMPS,ioos:station:USF.COMPS:C13:1,2015-11-03T01:35:00Z,26.0630,-83.0730,1013.21,1111122 
COMPS,ioos:station:USF.COMPS:C13:1,2015-11-03T05:05:00Z,26.0630,-83.0730,1012.81,1111122 
COMPS,ioos:station:USF.COMPS:C13:1,2015-11-03T05:35:00Z,26.0630,-83.0730,1013.0,1111122 
COMPS,ioos:station:USF.COMPS:C13:1,2015-11-03T06:05:00Z,26.0630,-83.0730,1012.97,1111122 
COMPS,ioos:station:USF.COMPS:C13:1,2015-11-03T06:35:00Z,26.0630,-83.0730,1012.92,1111122 
COMPS,ioos:station:USF.COMPS:C13:1,2015-11-03T07:05:00Z,26.0630,-83.0730,1012.68,1111122 
COMPS,ioos:station:USF.COMPS:C13:1,2015-11-03T07:35:00Z,26.0630,-83.0730,1012.54,1111122 
COMPS,ioos:station:USF.COMPS:C13:1,2015-11-03T08:05:00Z,26.0630,-83.0730,1012.54,1111122 
COMPS,ioos:station:USF.COMPS:C13:1,2015-11-03T08:35:00Z,26.0630,-83.0730,1012.54,1111122 
COMPS,ioos:station:USF.COMPS:C13:1,2015-11-03T09:05:00Z,26.0630,-83.0730,1012.57,1111122 
COMPS,ioos:station:USF.COMPS:C13:1,2015-11-03T09:35:00Z,26.0630,-83.0730,1012.57,1111122 
COMPS,ioos:station:USF.COMPS:C13:1,2015-11-03T10:05:00Z,26.0630,-83.0730,1012.62,1111122 
COMPS,ioos:station:USF.COMPS:C13:1,2015-11-03T10:35:00Z,26.0630,-83.0730,1012.88,1111122 
COMPS,ioos:station:USF.COMPS:C13:1,2015-11-03T11:05:00Z,26.0630,-83.0730,1013.03,1111122 
COMPS,ioos:station:USF.COMPS:C13:1,2015-11-03T11:35:00Z,26.0630,-83.0730,1013.23,1111122 
COMPS,ioos:station:USF.COMPS:C13:1,2015-11-03T12:05:00Z,26.0630,-83.0730,1013.34,1111122 
COMPS,ioos:station:USF.COMPS:C13:1,2015-11-03T12:35:00Z,26.0630,-83.0730,1013.65,1111122 
COMPS,ioos:station:USF.COMPS:C13:1,2015-11-03T13:05:00Z,26.0630,-83.0730,1014.13,1111122 
COMPS,ioos:station:USF.COMPS:C13:1,2015-11-03T13:35:00Z,26.0630,-83.0730,1014.56,1111122 
COMPS,ioos:station:USF.COMPS:C13:1,2015-11-03T14:05:00Z,26.0630,-83.0730,1014.84,1111122 
COMPS,ioos:station:USF.COMPS:C13:1,2015-11-03T14:35:00Z,26.0630,-83.0730,1014.95,1111122 
COMPS,ioos:station:USF.COMPS:C13:1,2015-11-03T15:05:00Z,26.0630,-83.0730,1015.27,1111122 
COMPS,ioos:station:USF.COMPS:C13:1,2015-11-03T15:35:00Z,26.0630,-83.0730,1015.34,1111122 
COMPS,ioos:station:USF.COMPS:C13:1,2015-11-03T16:05:00Z,26.0630,-83.0730,1015.28,1111122 
COMPS,ioos:station:USF.COMPS:C13:1,2015-11-03T16:35:00Z,26.0630,-83.0730,1015.05,1111122 
COMPS,ioos:station:USF.COMPS:C13:1,2015-11-03T17:05:00Z,26.0630,-83.0730,1014.62,1111122 
COMPS,ioos:station:USF.COMPS:C13:1,2015-11-03T17:35:00Z,26.0630,-83.0730,1014.26,1111122 
COMPS,ioos:station:USF.COMPS:C13:1,2015-11-03T18:05:00Z,26.0630,-83.0730,1014.0,1111122 
COMPS,ioos:station:USF.COMPS:C13:1,2015-11-03T18:35:00Z,26.0630,-83.0730,1013.65,1111122 
COMPS,ioos:station:USF.COMPS:C13:1,2015-11-03T19:05:00Z,26.0630,-83.0730,1013.42,1111122 
COMPS,ioos:station:USF.COMPS:C13:1,2015-11-03T19:35:00Z,26.0630,-83.0730,1013.35,1111122 
COMPS,ioos:station:USF.COMPS:C13:1,2015-11-03T20:05:00Z,26.0630,-83.0730,1013.2,1111122 
COMPS,ioos:station:USF.COMPS:C13:1,2015-11-03T20:35:00Z,26.0630,-83.0730,1013.22,1111122 
COMPS,ioos:station:USF.COMPS:C13:1,2015-11-03T21:05:00Z,26.0630,-83.0730,1013.44,1111122 
COMPS,ioos:station:USF.COMPS:C13:1,2015-11-03T21:35:00Z,26.0630,-83.0730,1013.61,1111122 
COMPS,ioos:station:USF.COMPS:C13:1,2015-11-03T22:05:00Z,26.0630,-83.0730,1013.62,1111122 
COMPS,ioos:station:USF.COMPS:C13:1,2015-11-03T22:35:00Z,26.0630,-83.0730,1013.61,1111122 
COMPS,ioos:station:USF.COMPS:C13:1,2015-11-03T23:05:00Z,26.0630,-83.0730,1013.76,1111122 
COMPS,ioos:station:USF.COMPS:C13:1,2015-11-03T23:35:00Z,26.0630,-83.0730,1014.04,1111122 
COMPS,ioos:station:USF.COMPS:C13:1,2015-11-04T00:05:00Z,26.0630,-83.0730,1014.4,1111122 
COMPS,ioos:station:USF.COMPS:C13:1,2015-11-04T00:35:00Z,26.0630,-83.0730,1014.78,1111122 
COMPS,ioos:station:USF.COMPS:C13:1,2015-11-04T01:05:00Z,26.0630,-83.0730,1014.81,1111122 
COMPS,ioos:station:USF.COMPS:C13:1,2015-11-04T01:35:00Z,26.0630,-83.0730,1015.06,1111122 
COMPS,ioos:station:USF.COMPS:C13:1,2015-11-04T02:05:00Z,26.0630,-83.0730,1015.35,1111122 
COMPS,ioos:station:USF.COMPS:C13:1,2015-11-04T02:35:00Z,26.0630,-83.0730,1015.4,1111122 
COMPS,ioos:station:USF.COMPS:C13:1,2015-11-04T03:05:00Z,26.0630,-83.0730,1015.64,1111122 
COMPS,ioos:station:USF.COMPS:C13:1,2015-11-04T03:35:00Z,26.0630,-83.0730,1015.53,1111122 
COMPS,ioos:station:USF.COMPS:C13:1,2015-11-04T05:05:00Z,26.0630,-83.0730,1015.47,1111122 
COMPS,ioos:station:USF.COMPS:C13:1,2015-11-04T05:35:00Z,26.0630,-83.0730,1015.28,1111122 
COMPS,ioos:station:USF.COMPS:C13:1,2015-11-04T06:05:00Z,26.0630,-83.0730,1015.2,1111122 
COMPS,ioos:station:USF.COMPS:C13:1,2015-11-04T06:35:00Z,26.0630,-83.0730,1015.09,1111122 
COMPS,ioos:station:USF.COMPS:C13:1,2015-11-04T07:05:00Z,26.0630,-83.0730,1014.85,1111122 
COMPS,ioos:station:USF.COMPS:C13:1,2015-11-04T07:35:00Z,26.0630,-83.0730,1014.83,1111122 
COMPS,ioos:station:USF.COMPS:C13:1,2015-11-04T08:05:00Z,26.0630,-83.0730,1014.64,1111122 
COMPS,ioos:station:USF.COMPS:C13:1,2015-11-04T08:35:00Z,26.0630,-83.0730,1014.54,1111122 
COMPS,ioos:station:USF.COMPS:C13:1,2015-11-04T09:05:00Z,26.0630,-83.0730,1014.5,1111122 
COMPS,ioos:station:USF.COMPS:C13:1,2015-11-04T09:35:00Z,26.0630,-83.0730,1014.39,1111122 
COMPS,ioos:station:USF.COMPS:C13:1,2015-11-04T10:05:00Z,26.0630,-83.0730,1014.54,1111122 
COMPS,ioos:station:USF.COMPS:C13:1,2015-11-04T10:35:00Z,26.0630,-83.0730,1014.6,1111122 
COMPS,ioos:station:USF.COMPS:C13:1,2015-11-04T11:05:00Z,26.0630,-83.0730,1014.62,1111122 
COMPS,ioos:station:USF.COMPS:C13:1,2015-11-04T11:35:00Z,26.0630,-83.0730,1014.85,1111122 
COMPS,ioos:station:USF.COMPS:C13:1,2015-11-04T12:05:00Z,26.0630,-83.0730,1015.22,1111122 
COMPS,ioos:station:USF.COMPS:C13:1,2015-11-04T12:35:00Z,26.0630,-83.0730,1015.43,1111122 
COMPS,ioos:station:USF.COMPS:C13:1,2015-11-04T13:05:00Z,26.0630,-83.0730,1015.86,1111122 
COMPS,ioos:station:USF.COMPS:C13:1,2015-11-04T13:35:00Z,26.0630,-83.0730,1016.3,1111122 
COMPS,ioos:station:USF.COMPS:C13:1,2015-11-04T14:05:00Z,26.0630,-83.0730,1016.6,1111122 
COMPS,ioos:station:USF.COMPS:C13:1,2015-11-04T14:35:00Z,26.0630,-83.0730,1016.77,1111122 
COMPS,ioos:station:USF.COMPS:C13:1,2015-11-04T15:05:00Z,26.0630,-83.0730,1016.83,1111122 
COMPS,ioos:station:USF.COMPS:C13:1,2015-11-04T15:35:00Z,26.0630,-83.0730,1016.97,1111122 
COMPS,ioos:station:USF.COMPS:C13:1,2015-11-04T16:05:00Z,26.0630,-83.0730,1017.03,1111122 
COMPS,ioos:station:USF.COMPS:C13:1,2015-11-04T16:35:00Z,26.0630,-83.0730,1017.04,1111122 
COMPS,ioos:station:USF.COMPS:C13:1,2015-11-04T17:05:00Z,26.0630,-83.0730,1016.78,1111122 
COMPS,ioos:station:USF.COMPS:C13:1,2015-11-04T17:35:00Z,26.0630,-83.0730,1016.57,1111122 
COMPS,ioos:station:USF.COMPS:C13:1,2015-11-04T18:05:00Z,26.0630,-83.0730,1016.25,1111122 
COMPS,ioos:station:USF.COMPS:C13:1,2015-11-04T18:35:00Z,26.0630,-83.0730,1015.97,1111122 
COMPS,ioos:station:USF.COMPS:C13:1,2015-11-04T19:05:00Z,26.0630,-83.0730,1015.68,1111122 
COMPS,ioos:station:USF.COMPS:C13:1,2015-11-04T19:35:00Z,26.0630,-83.0730,1015.33,1111122 
COMPS,ioos:station:USF.COMPS:C13:1,2015-11-04T20:05:00Z,26.0630,-83.0730,1015.06,1111122 
COMPS,ioos:station:USF.COMPS:C13:1,2015-11-04T20:35:00Z,26.0630,-83.0730,1015.0,1111122 
COMPS,ioos:station:USF.COMPS:C13:1,2015-11-04T21:05:00Z,26.0630,-83.0730,1014.9,1111122 
COMPS,ioos:station:USF.COMPS:C13:1,2015-11-04T21:35:00Z,26.0630,-83.0730,1014.75,1111122 
COMPS,ioos:station:USF.COMPS:C13:1,2015-11-04T22:05:00Z,26.0630,-83.0730,1014.66,1111122 
COMPS,ioos:station:USF.COMPS:C13:1,2015-11-04T22:35:00Z,26.0630,-83.0730,1014.88,1111122 
COMPS,ioos:station:USF.COMPS:C13:1,2015-11-04T23:05:00Z,26.0630,-83.0730,1015.18,1111122 
COMPS,ioos:station:USF.COMPS:C13:1,2015-11-04T23:35:00Z,26.0630,-83.0730,1015.41,1111122 
COMPS,ioos:station:USF.COMPS:C13:1,2015-11-05T00:05:00Z,26.0630,-83.0730,1015.86,1111122 
COMPS,ioos:station:USF.COMPS:C13:1,2015-11-05T00:35:00Z,26.0630,-83.0730,1016.28,1111122 
COMPS,ioos:station:USF.COMPS:C13:1,2015-11-05T01:05:00Z,26.0630,-83.0730,1016.74,1111122 
COMPS,ioos:station:USF.COMPS:C13:1,2015-11-05T01:35:00Z,26.0630,-83.0730,1016.82,1111122 
COMPS,ioos:station:USF.COMPS:C13:1,2015-11-05T03:05:00Z,26.0630,-83.0730,1017.17,1111122 
COMPS,ioos:station:USF.COMPS:C13:1,2015-11-05T03:35:00Z,26.0630,-83.0730,1017.01,1111122 
COMPS,ioos:station:USF.COMPS:C13:1,2015-11-05T05:05:00Z,26.0630,-83.0730,1016.61,1111122 
COMPS,ioos:station:USF.COMPS:C13:1,2015-11-05T05:35:00Z,26.0630,-83.0730,1016.28,1111122 
COMPS,ioos:station:USF.COMPS:C13:1,2015-11-05T06:05:00Z,26.0630,-83.0730,1016.21,1111122 
COMPS,ioos:station:USF.COMPS:C13:1,2015-11-05T06:35:00Z,26.0630,-83.0730,1016.27,1111122 
COMPS,ioos:station:USF.COMPS:C13:1,2015-11-05T07:05:00Z,26.0630,-83.0730,1015.95,1111122 
COMPS,ioos:station:USF.COMPS:C13:1,2015-11-05T07:35:00Z,26.0630,-83.0730,1015.73,1111122 
COMPS,ioos:station:USF.COMPS:C13:1,2015-11-05T08:05:00Z,26.0630,-83.0730,1015.66,1111122 
COMPS,ioos:station:USF.COMPS:C13:1,2015-11-05T08:35:00Z,26.0630,-83.0730,1015.71,1111122 
COMPS,ioos:station:USF.COMPS:C13:1,2015-11-05T09:05:00Z,26.0630,-83.0730,1015.73,1111122 
COMPS,ioos:station:USF.COMPS:C13:1,2015-11-05T09:35:00Z,26.0630,-83.0730,1015.72,1111122 
COMPS,ioos:station:USF.COMPS:C13:1,2015-11-05T10:05:00Z,26.0630,-83.0730,1015.86,1111122 
COMPS,ioos:station:USF.COMPS:C13:1,2015-11-05T10:35:00Z,26.0630,-83.0730,1016.22,1111122 
COMPS,ioos:station:USF.COMPS:C13:1,2015-11-05T11:05:00Z,26.0630,-83.0730,1016.54,1111122 
COMPS,ioos:station:USF.COMPS:C13:1,2015-11-05T11:35:00Z,26.0630,-83.0730,1016.77,1111122 
COMPS,ioos:station:USF.COMPS:C13:1,2015-11-05T12:05:00Z,26.0630,-83.0730,1016.81,1111122 
COMPS,ioos:station:USF.COMPS:C13:1,2015-11-05T12:35:00Z,26.0630,-83.0730,1016.84,1111122 
COMPS,ioos:station:USF.COMPS:C13:1,2015-11-05T13:05:00Z,26.0630,-83.0730,1017.21,1111122 
COMPS,ioos:station:USF.COMPS:C13:1,2015-11-05T13:35:00Z,26.0630,-83.0730,1017.77,1111122 
COMPS,ioos:station:USF.COMPS:C13:1,2015-11-05T14:05:00Z,26.0630,-83.0730,1018.13,1111122 
COMPS,ioos:station:USF.COMPS:C13:1,2015-11-05T14:35:00Z,26.0630,-83.0730,1018.1,1111122 
COMPS,ioos:station:USF.COMPS:C13:1,2015-11-05T15:05:00Z,26.0630,-83.0730,1018.1,1111122 
COMPS,ioos:station:USF.COMPS:C13:1,2015-11-05T15:35:00Z,26.0630,-83.0730,1017.94,1111122 
COMPS,ioos:station:USF.COMPS:C13:1,2015-11-05T17:05:00Z,26.0630,-83.0730,1017.64,1111122 
COMPS,ioos:station:USF.COMPS:C13:1,2015-11-05T17:35:00Z,26.0630,-83.0730,1017.35,1111122 
COMPS,ioos:station:USF.COMPS:C13:1,2015-11-05T18:05:00Z,26.0630,-83.0730,1016.91,1111122 
COMPS,ioos:station:USF.COMPS:C13:1,2015-11-05T18:35:00Z,26.0630,-83.0730,1016.61,1111122 
COMPS,ioos:station:USF.COMPS:C13:1,2015-11-05T20:05:00Z,26.0630,-83.0730,1015.85,1111122 
COMPS,ioos:station:USF.COMPS:C13:1,2015-11-05T20:35:00Z,26.0630,-83.0730,1015.77,1111122 
COMPS,ioos:station:USF.COMPS:C13:1,2015-11-05T21:05:00Z,26.0630,-83.0730,1015.84,1111122 
COMPS,ioos:station:USF.COMPS:C13:1,2015-11-05T21:35:00Z,26.0630,-83.0730,1015.81,1111122 
COMPS,ioos:station:USF.COMPS:C13:1,2015-11-05T22:05:00Z,26.0630,-83.0730,1015.78,1111122 
COMPS,ioos:station:USF.COMPS:C13:1,2015-11-05T22:35:00Z,26.0630,-83.0730,1015.83,1111122 
COMPS,ioos:station:USF.COMPS:C13:1,2015-11-05T23:05:00Z,26.0630,-83.0730,1015.88,1111122 
COMPS,ioos:station:USF.COMPS:C13:1,2015-11-05T23:35:00Z,26.0630,-83.0730,1016.29,1111122 
COMPS,ioos:station:USF.COMPS:C13:1,2015-11-06T00:05:00Z,26.0630,-83.0730,1016.29,1111122 
COMPS,ioos:station:USF.COMPS:C13:1,2015-11-06T00:35:00Z,26.0630,-83.0730,1016.57,1111122 
COMPS,ioos:station:USF.COMPS:C13:1,2015-11-06T01:05:00Z,26.0630,-83.0730,1016.89,1111122 
COMPS,ioos:station:USF.COMPS:C13:1,2015-11-06T01:35:00Z,26.0630,-83.0730,1017.31,1111122 
COMPS,ioos:station:USF.COMPS:C13:1,2015-11-06T05:05:00Z,26.0630,-83.0730,1016.79,1111122 
COMPS,ioos:station:USF.COMPS:C13:1,2015-11-06T05:35:00Z,26.0630,-83.0730,1016.45,1111122 
COMPS,ioos:station:USF.COMPS:C13:1,2015-11-06T06:05:00Z,26.0630,-83.0730,1016.24,1111122 
COMPS,ioos:station:USF.COMPS:C13:1,2015-11-06T06:35:00Z,26.0630,-83.0730,1016.09,1111122 
COMPS,ioos:station:USF.COMPS:C13:1,2015-11-06T07:05:00Z,26.0630,-83.0730,1016.15,1111122 
COMPS,ioos:station:USF.COMPS:C13:1,2015-11-06T07:35:00Z,26.0630,-83.0730,1015.88,1111122 
COMPS,ioos:station:USF.COMPS:C13:1,2015-11-06T08:05:00Z,26.0630,-83.0730,1015.73,1111122 
COMPS,ioos:station:USF.COMPS:C13:1,2015-11-06T08:35:00Z,26.0630,-83.0730,1015.75,1111122 
COMPS,ioos:station:USF.COMPS:C13:1,2015-11-06T09:05:00Z,26.0630,-83.0730,1016.01,1111122 
COMPS,ioos:station:USF.COMPS:C13:1,2015-11-06T09:35:00Z,26.0630,-83.0730,1015.95,1111122 
COMPS,ioos:station:USF.COMPS:C13:1,2015-11-06T10:05:00Z,26.0630,-83.0730,1016.19,1111122 
COMPS,ioos:station:USF.COMPS:C13:1,2015-11-06T10:35:00Z,26.0630,-83.0730,1016.27,1111122 
COMPS,ioos:station:USF.COMPS:C13:1,2015-11-06T11:05:00Z,26.0630,-83.0730,1016.39,1111122 
COMPS,ioos:station:USF.COMPS:C13:1,2015-11-06T11:35:00Z,26.0630,-83.0730,1016.68,1111122 
COMPS,ioos:station:USF.COMPS:C13:1,2015-11-06T12:05:00Z,26.0630,-83.0730,1016.9,1111122 
COMPS,ioos:station:USF.COMPS:C13:1,2015-11-06T12:35:00Z,26.0630,-83.0730,1017.03,1111122 
COMPS,ioos:station:USF.COMPS:C13:1,2015-11-06T13:05:00Z,26.0630,-83.0730,1017.31,1111122 
COMPS,ioos:station:USF.COMPS:C13:1,2015-11-06T13:35:00Z,26.0630,-83.0730,1017.68,1111122 
COMPS,ioos:station:USF.COMPS:C13:1,2015-11-06T14:05:00Z,26.0630,-83.0730,1017.86,1111122 
COMPS,ioos:station:USF.COMPS:C13:1,2015-11-06T14:35:00Z,26.0630,-83.0730,1017.84,1111122 
COMPS,ioos:station:USF.COMPS:C13:1,2015-11-06T15:05:00Z,26.0630,-83.0730,1017.95,1111122 
COMPS,ioos:station:USF.COMPS:C13:1,2015-11-06T15:35:00Z,26.0630,-83.0730,1017.98,1111122 
COMPS,ioos:station:USF.COMPS:C13:1,2015-11-06T16:05:00Z,26.0630,-83.0730,1017.73,1111122 
COMPS,ioos:station:USF.COMPS:C13:1,2015-11-06T16:35:00Z,26.0630,-83.0730,1017.45,1111122 
COMPS,ioos:station:USF.COMPS:C13:1,2015-11-06T17:05:00Z,26.0630,-83.0730,1017.28,1111122 
COMPS,ioos:station:USF.COMPS:C13:1,2015-11-06T17:35:00Z,26.0630,-83.0730,1016.99,1111122 
COMPS,ioos:station:USF.COMPS:C13:1,2015-11-06T18:05:00Z,26.0630,-83.0730,1016.48,1111122 
COMPS,ioos:station:USF.COMPS:C13:1,2015-11-06T18:35:00Z,26.0630,-83.0730,1016.07,1111122 
COMPS,ioos:station:USF.COMPS:C13:1,2015-11-06T19:05:00Z,26.0630,-83.0730,1015.7,1111122 
COMPS,ioos:station:USF.COMPS:C13:1,2015-11-06T19:35:00Z,26.0630,-83.0730,1015.48,1111122 
COMPS,ioos:station:USF.COMPS:C13:1,2015-11-06T20:05:00Z,26.0630,-83.0730,1015.06,1111122 
COMPS,ioos:station:USF.COMPS:C13:1,2015-11-06T20:35:00Z,26.0630,-83.0730,1014.86,1111122 
COMPS,ioos:station:USF.COMPS:C13:1,2015-11-06T21:05:00Z,26.0630,-83.0730,1014.84,1111122 
COMPS,ioos:station:USF.COMPS:C13:1,2015-11-06T21:35:00Z,26.0630,-83.0730,1014.88,1111122 
COMPS,ioos:station:USF.COMPS:C13:1,2015-11-06T22:05:00Z,26.0630,-83.0730,1014.73,1111122 
COMPS,ioos:station:USF.COMPS:C13:1,2015-11-06T22:35:00Z,26.0630,-83.0730,1014.79,1111122 
COMPS,ioos:station:USF.COMPS:C13:1,2015-11-06T23:05:00Z,26.0630,-83.0730,1015.0,1111122 
COMPS,ioos:station:USF.COMPS:C13:1,2015-11-06T23:35:00Z,26.0630,-83.0730,1015.18,1111122 
COMPS,ioos:station:USF.COMPS:C13:1,2015-11-07T05:05:00Z,26.0630,-83.0730,1015.64,1111122 
COMPS,ioos:station:USF.COMPS:C13:1,2015-11-07T05:35:00Z,26.0630,-83.0730,1015.26,1111122 
COMPS,ioos:station:USF.COMPS:C13:1,2015-11-07T06:05:00Z,26.0630,-83.0730,1015.05,1111122 
COMPS,ioos:station:USF.COMPS:C13:1,2015-11-07T06:35:00Z,26.0630,-83.0730,1014.83,1111122 
COMPS,ioos:station:USF.COMPS:C13:1,2015-11-07T07:05:00Z,26.0630,-83.0730,1014.56,1111122 
COMPS,ioos:station:USF.COMPS:C13:1,2015-11-07T07:35:00Z,26.0630,-83.0730,1014.39,1111122 
COMPS,ioos:station:USF.COMPS:C13:1,2015-11-07T08:05:00Z,26.0630,-83.0730,1014.28,1111122 
COMPS,ioos:station:USF.COMPS:C13:1,2015-11-07T08:35:00Z,26.0630,-83.0730,1014.36,1111122 
COMPS,ioos:station:USF.COMPS:C13:1,2015-11-07T09:05:00Z,26.0630,-83.0730,1014.39,1111122 
COMPS,ioos:station:USF.COMPS:C13:1,2015-11-07T09:35:00Z,26.0630,-83.0730,1014.3,1111122 
COMPS,ioos:station:USF.COMPS:C13:1,2015-11-07T10:05:00Z,26.0630,-83.0730,1014.32,1111122 
COMPS,ioos:station:USF.COMPS:C13:1,2015-11-07T10:35:00Z,26.0630,-83.0730,1014.4,1111122 
COMPS,ioos:station:USF.COMPS:C13:1,2015-11-07T11:05:00Z,26.0630,-83.0730,1014.55,1111122 
COMPS,ioos:station:USF.COMPS:C13:1,2015-11-07T11:35:00Z,26.0630,-83.0730,1014.85,1111122 
COMPS,ioos:station:USF.COMPS:C13:1,2015-11-07T13:05:00Z,26.0630,-83.0730,1015.68,1111122 
COMPS,ioos:station:USF.COMPS:C13:1,2015-11-07T13:35:00Z,26.0630,-83.0730,1015.73,1111122 
COMPS,ioos:station:USF.COMPS:C13:1,2015-11-07T14:05:00Z,26.0630,-83.0730,1015.84,1111122 
COMPS,ioos:station:USF.COMPS:C13:1,2015-11-07T14:35:00Z,26.0630,-83.0730,1016.07,1111122 
COMPS,ioos:station:USF.COMPS:C13:1,2015-11-07T16:05:00Z,26.0630,-83.0730,1015.79,1111122 
COMPS,ioos:station:USF.COMPS:C13:1,2015-11-07T16:35:00Z,26.0630,-83.0730,1015.73,1111122 
COMPS,ioos:station:USF.COMPS:C13:1,2015-11-07T18:05:00Z,26.0630,-83.0730,1014.49,1111122 
COMPS,ioos:station:USF.COMPS:C13:1,2015-11-07T18:35:00Z,26.0630,-83.0730,1014.01,1111122 
COMPS,ioos:station:USF.COMPS:C13:1,2015-11-07T19:05:00Z,26.0630,-83.0730,1013.77,1111122 
COMPS,ioos:station:USF.COMPS:C13:1,2015-11-07T19:35:00Z,26.0630,-83.0730,1013.59,1111122 
COMPS,ioos:station:USF.COMPS:C13:1,2015-11-07T20:05:00Z,26.0630,-83.0730,1013.46,1111122 
COMPS,ioos:station:USF.COMPS:C13:1,2015-11-07T20:35:00Z,26.0630,-83.0730,1013.15,1111122 
COMPS,ioos:station:USF.COMPS:C13:1,2015-11-07T22:05:00Z,26.0630,-83.0730,1013.39,1111122 
COMPS,ioos:station:USF.COMPS:C13:1,2015-11-07T22:35:00Z,26.0630,-83.0730,1013.61,1111122 
COMPS,ioos:station:USF.COMPS:C13:1,2015-11-07T23:05:00Z,26.0630,-83.0730,1013.68,1111122 
COMPS,ioos:station:USF.COMPS:C13:1,2015-11-07T23:35:00Z,26.0630,-83.0730,1013.83,1111122 